Weather History for Phnom Penh, Cambodia

Change the Weather History Date:

Monday, April 28, 2014

  Actual Average Record
Temperature  
Mean Temperature 86 °F -  
Max Temperature 96 °F 91 °F 98 °F (2006)
Min Temperature 77 °F 78 °F 77 °F (2007)
Cooling Degree Days 22    
Growing Degree Days 36 (Base 50)    
Moisture  
Dew Point 72 °F    
Average Humidity 62    
Maximum Humidity 89    
Minimum Humidity 39    
Precipitation  
Precipitation 0.00 in - - ()
Sea Level Pressure  
Sea Level Pressure 29.77 in    
Wind  
Wind Speed 5 mph ()    
Max Wind Speed 16 mph    
Max Gust Speed -    
Visibility 5.5 miles    
Events Rain , Thunderstorm    
Averages and records for this station are not official NWS values.
T = Trace of Precipitation, MM = Missing Value Source: Averaged Metar Reports

Daily Weather History Graph

Daily Weather History Graph

Search for Another Location

Airport:

Trip Planner

Search our weather history database for the weather conditions in past years. The results will help you decide how hot, cold, wet, or windy it might be!

Date:

Astronomy

Apr. 28, 2014 Rise Set
Actual Time 5:42 AM ICT 6:13 PM ICT
Civil Twilight 5:21 AM ICT 6:35 PM ICT
Nautical Twilight 4:55 AM ICT 7:00 PM ICT
Astronomical Twilight 4:29 AM ICT 7:26 PM ICT
Moon 4:45 AM ICT (4/28) 5:26 PM ICT (4/28)
Length of Visible Light 13h 14m
Length of Day
12h 30m
Waning Crescent, 1% of the Moon is Illuminated
Apr 28
Waning Crescent
Apr 29
New
May 7
First Quarter
May 15
Full
May 21
Last Quarter

Hourly Weather History & Observations

Time (ICT) Temp. Heat Index Dew Point Humidity Pressure Visibility Wind Dir Wind Speed Gust Speed Precip Events Conditions
12:00 AM 84.2 °F 90.9 °F 73.4 °F 70% 29.80 in 6.2 mi West 4.6 mph - N/A   Scattered Clouds
12:30 AM 84.2 °F 89.6 °F 71.6 °F 66% 29.80 in 6.2 mi WSW 5.8 mph - N/A   Scattered Clouds
1:00 AM 84.2 °F 89.6 °F 71.6 °F 66% 29.77 in 6.2 mi WSW 4.6 mph - N/A   Scattered Clouds
6:00 AM 82.4 °F 89.5 °F 75.2 °F 79% 29.80 in 5.6 mi Calm Calm - N/A   Scattered Clouds
7:00 AM 82.4 °F 88.2 °F 73.4 °F 74% 29.83 in 5.6 mi South 5.8 mph - N/A   Unknown
7:30 AM 86.0 °F 93.4 °F 73.4 °F 66% 29.83 in 5.6 mi South 5.8 mph - N/A   Unknown
8:00 AM 84.2 °F 89.6 °F 71.6 °F 66% 29.83 in 6.2 mi South 5.8 mph - N/A   Partly Cloudy
8:30 AM 87.8 °F 95.6 °F 73.4 °F 62% 29.83 in 6.2 mi SSE 4.6 mph - N/A   Partly Cloudy
9:00 AM 89.6 °F 96.2 °F 71.6 °F 55% 29.83 in 6.2 mi South 5.8 mph - N/A   Partly Cloudy
9:30 AM 89.6 °F 98.2 °F 73.4 °F 59% 29.83 in 6.2 mi SSW 2.3 mph - N/A   Partly Cloudy
10:00 AM 91.4 °F 98.4 °F 71.6 °F 52% 29.83 in 6.2 mi South 6.9 mph - N/A   Partly Cloudy
10:30 AM 91.4 °F 98.4 °F 71.6 °F 52% 29.83 in 6.2 mi Variable 1.2 mph - N/A   Scattered Clouds
11:00 AM 91.4 °F 98.4 °F 71.6 °F 52% 29.83 in 6.2 mi South 3.5 mph - N/A   Scattered Clouds
11:30 AM 91.4 °F 96.8 °F 69.8 °F 49% 29.80 in 6.2 mi Variable 8.1 mph - N/A   Scattered Clouds
12:00 PM 93.2 °F 98.8 °F 69.8 °F 46% 29.80 in - North - - N/A   Scattered Clouds
12:30 PM 95.0 °F 101.3 °F 69.8 °F 44% 29.77 in - North - - N/A   Partly Cloudy
1:00 PM 95.0 °F 101.3 °F 69.8 °F 44% 29.74 in 6.2 mi ENE 6.9 mph - N/A   Partly Cloudy
1:30 PM 96.8 °F 105.1 °F 71.6 °F 44% 29.71 in 6.2 mi SSE 3.5 mph - N/A   Partly Cloudy
2:00 PM 96.8 °F 103.1 °F 69.8 °F 41% 29.68 in 6.2 mi SE 10.4 mph - N/A   Partly Cloudy
2:30 PM 96.8 °F 105.1 °F 71.6 °F 44% 29.68 in 6.2 mi SSE 10.4 mph - N/A   Scattered Clouds
3:00 PM 96.8 °F 105.1 °F 71.6 °F 44% 29.68 in 6.2 mi SSE 4.6 mph - N/A   Scattered Clouds
3:30 PM 96.8 °F 103.1 °F 69.8 °F 41% 29.65 in 6.2 mi South 6.9 mph - N/A   Scattered Clouds
4:00 PM 96.8 °F 101.8 °F 68.0 °F 39% 29.65 in 6.2 mi SSE 8.1 mph - N/A   Partly Cloudy
4:30 PM 96.8 °F 101.8 °F 68.0 °F 39% 29.65 in 6.2 mi South 8.1 mph - N/A   Partly Cloudy
5:00 PM 95.0 °F 99.5 °F 68.0 °F 41% 29.65 in 6.2 mi SSE 9.2 mph - N/A   Partly Cloudy
5:30 PM 95.0 °F 103.2 °F 71.6 °F 47% 29.68 in 5.6 mi SSE 6.9 mph - N/A   Partly Cloudy
6:00 PM 86.0 °F 93.4 °F 73.4 °F 66% 29.71 in 4.3 mi WSW 16.1 mph - N/A Rain Light Rain
6:30 PM 82.4 °F 87.2 °F 71.6 °F 70% 29.71 in 4.3 mi WNW 11.5 mph - N/A Rain , Thunderstorm Light Thunderstorms and Rain
7:00 PM 78.8 °F - 73.4 °F 83% 29.74 in 4.3 mi North 10.4 mph - N/A Rain , Thunderstorm Light Thunderstorms and Rain
7:30 PM 78.8 °F - 73.4 °F 83% 29.77 in 1.2 mi West 6.9 mph - N/A Rain , Thunderstorm Thunderstorms and Rain
8:00 PM 78.8 °F - 73.4 °F 83% 29.74 in 2.5 mi NW 6.9 mph - N/A Rain , Thunderstorm Thunderstorms and Rain
8:30 PM 78.8 °F - 73.4 °F 83% 29.77 in 4.3 mi Variable 4.6 mph - N/A   Mostly Cloudy
9:00 PM 78.8 °F - 73.4 °F 83% 29.80 in 5.0 mi SE 11.5 mph - N/A   Mostly Cloudy
9:30 PM 78.8 °F - 71.6 °F 78% 29.83 in 5.0 mi ESE 8.1 mph - N/A Rain Light Rain
10:00 PM 78.8 °F - 71.6 °F 78% 29.86 in 5.0 mi SSW 10.4 mph - N/A   Mostly Cloudy
10:30 PM 77.0 °F - 73.4 °F 89% 29.86 in 5.0 mi SSW 5.8 mph - N/A Thunderstorm Thunderstorm
11:00 PM 77.0 °F - 71.6 °F 83% 29.86 in 4.3 mi SSW 4.6 mph - N/A Rain , Thunderstorm Light Thunderstorms and Rain
11:30 PM 77.0 °F - 73.4 °F 89% 29.83 in 5.0 mi SSW 4.6 mph - N/A Rain Light Rain